Data supplied by UK-AIR on 2/5/2024
All Data GMT hour ending 
Status: R =Ratified P=Provisional,P*=As supplied
,,Inverness,,,,,,,,,,,,,,,,,,,,,,,
Date,time,"PM<sub>10</sub> particulate matter (Hourly measured)",status,unit,"Nitric oxide",status,unit,"Nitrogen dioxide",status,unit,"Nitrogen oxides as nitrogen dioxide",status,unit,"PM<sub>2.5</sub> particulate matter (Hourly measured)",status,unit
 
01-01-2024,01:00,13.275,P,ugm-3 (FIDAS),4.23458,P,ugm-3,10.81136,P,ugm-3,17.30430,P,ugm-3,11.109,P,ugm-3 (Ref.eq)
01-01-2024,02:00,7.350,P,ugm-3 (FIDAS),8.25089,P,ugm-3,12.80801,P,ugm-3,25.45920,P,ugm-3,5.259,P,ugm-3 (Ref.eq)
01-01-2024,03:00,5.750,P,ugm-3 (FIDAS),4.05996,P,ugm-3,7.44919,P,ugm-3,13.67438,P,ugm-3,3.726,P,ugm-3 (Ref.eq)
01-01-2024,04:00,5.125,P,ugm-3 (FIDAS),2.81578,P,ugm-3,5.27946,P,ugm-3,9.59693,P,ugm-3,3.090,P,ugm-3 (Ref.eq)
01-01-2024,05:00,4.750,P,ugm-3 (FIDAS),4.15819,P,ugm-3,6.60243,P,ugm-3,12.97823,P,ugm-3,2.925,P,ugm-3 (Ref.eq)
01-01-2024,06:00,3.800,P,ugm-3 (FIDAS),1.66982,P,ugm-3,2.46187,P,ugm-3,5.02223,P,ugm-3,2.311,P,ugm-3 (Ref.eq)
01-01-2024,07:00,1.875,P,ugm-3 (FIDAS),1.40789,P,ugm-3,2.61487,P,ugm-3,4.77360,P,ugm-3,1.179,P,ugm-3 (Ref.eq)
01-01-2024,08:00,1.175,P,ugm-3 (FIDAS),1.89901,P,ugm-3,3.40329,P,ugm-3,6.31508,P,ugm-3,0.802,P,ugm-3 (Ref.eq)
01-01-2024,09:00,1.175,P,ugm-3 (FIDAS),2.68481,P,ugm-3,4.58522,P,ugm-3,8.70188,P,ugm-3,0.731,P,ugm-3 (Ref.eq)
01-01-2024,10:00,1.550,P,ugm-3 (FIDAS),2.71756,P,ugm-3,5.23117,P,ugm-3,9.39803,P,ugm-3,0.920,P,ugm-3 (Ref.eq)
01-01-2024,11:00,2.600,P,ugm-3 (FIDAS),3.43787,P,ugm-3,7.50800,P,ugm-3,12.77933,P,ugm-3,1.392,P,ugm-3 (Ref.eq)
01-01-2024,12:00,2.925,P,ugm-3 (FIDAS),5.07495,P,ugm-3,6.34042,P,ugm-3,14.12190,P,ugm-3,1.958,P,ugm-3 (Ref.eq)
01-01-2024,13:00,4.100,P,ugm-3 (FIDAS),6.77752,P,ugm-3,10.19410,P,ugm-3,20.58615,P,ugm-3,2.311,P,ugm-3 (Ref.eq)
01-01-2024,14:00,5.600,P,ugm-3 (FIDAS),10.54280,P,ugm-3,16.10612,P,ugm-3,32.27153,P,ugm-3,3.231,P,ugm-3 (Ref.eq)
01-01-2024,15:00,6.825,P,ugm-3 (FIDAS),12.67101,P,ugm-3,20.94809,P,ugm-3,40.37670,P,ugm-3,4.057,P,ugm-3 (Ref.eq)
01-01-2024,16:00,10.700,P,ugm-3 (FIDAS),14.50454,P,ugm-3,23.05949,P,ugm-3,45.29948,P,ugm-3,7.146,P,ugm-3 (Ref.eq)
01-01-2024,17:00,17.300,P,ugm-3 (FIDAS),30.97358,P,ugm-3,46.78644,P,ugm-3,94.27860,P,ugm-3,13.278,P,ugm-3 (Ref.eq)
01-01-2024,18:00,18.050,P,ugm-3 (FIDAS),45.64183,P,ugm-3,54.22989,P,ugm-3,124.21305,P,ugm-3,14.528,P,ugm-3 (Ref.eq)
01-01-2024,19:00,41.850,P,ugm-3 (FIDAS),41.84380,P,ugm-3,57.96501,P,ugm-3,122.12460,P,ugm-3,36.675,P,ugm-3 (Ref.eq)
01-01-2024,20:00,40.275,P,ugm-3 (FIDAS),59.13138,P,ugm-3,56.86723,P,ugm-3,147.53408,P,ugm-3,35.755,P,ugm-3 (Ref.eq)
01-01-2024,21:00,25.075,P,ugm-3 (FIDAS),26.19330,P,ugm-3,46.75680,P,ugm-3,86.91930,P,ugm-3,22.311,P,ugm-3 (Ref.eq)
01-01-2024,22:00,15.675,P,ugm-3 (FIDAS),23.57397,P,ugm-3,49.23158,P,ugm-3,85.37783,P,ugm-3,13.231,P,ugm-3 (Ref.eq)
01-01-2024,23:00,10.825,P,ugm-3 (FIDAS),11.78699,P,ugm-3,29.76233,P,ugm-3,47.83545,P,ugm-3,8.538,P,ugm-3 (Ref.eq)
01-01-2024,24:00,10.900,P,ugm-3 (FIDAS),7.39961,P,ugm-3,28.58327,P,ugm-3,39.92918,P,ugm-3,8.184,P,ugm-3 (Ref.eq)
02-01-2024,01:00,7.550,P,ugm-3 (FIDAS),4.54017,P,ugm-3,20.02260,P,ugm-3,26.98410,P,ugm-3,5.283,P,ugm-3 (Ref.eq)
02-01-2024,02:00,4.550,P,ugm-3 (FIDAS),1.13504,P,ugm-3,4.82333,P,ugm-3,6.56370,P,ugm-3,2.500,P,ugm-3 (Ref.eq)
02-01-2024,03:00,5.275,P,ugm-3 (FIDAS),1.11322,P,ugm-3,4.16064,P,ugm-3,5.86755,P,ugm-3,2.948,P,ugm-3 (Ref.eq)
02-01-2024,04:00,5.850,P,ugm-3 (FIDAS),0.85128,P,ugm-3,3.91584,P,ugm-3,5.22113,P,ugm-3,3.160,P,ugm-3 (Ref.eq)
02-01-2024,05:00,6.075,P,ugm-3 (FIDAS),1.08047,P,ugm-3,5.60315,P,ugm-3,7.25985,P,ugm-3,2.995,P,ugm-3 (Ref.eq)
02-01-2024,06:00,6.600,P,ugm-3 (FIDAS),0.98225,P,ugm-3,7.04661,P,ugm-3,8.55270,P,ugm-3,3.373,P,ugm-3 (Ref.eq)
02-01-2024,07:00,7.700,P,ugm-3 (FIDAS),1.30967,P,ugm-3,7.24073,P,ugm-3,9.24885,P,ugm-3,3.609,P,ugm-3 (Ref.eq)
02-01-2024,08:00,6.475,P,ugm-3 (FIDAS),1.27692,P,ugm-3,8.88213,P,ugm-3,10.84005,P,ugm-3,3.090,P,ugm-3 (Ref.eq)
02-01-2024,09:00,4.200,P,ugm-3 (FIDAS),1.08047,P,ugm-3,9.03417,P,ugm-3,10.69088,P,ugm-3,1.934,P,ugm-3 (Ref.eq)
02-01-2024,10:00,2.625,P,ugm-3 (FIDAS),1.40789,P,ugm-3,10.72004,P,ugm-3,12.87878,P,ugm-3,1.415,P,ugm-3 (Ref.eq)
02-01-2024,11:00,4.725,P,ugm-3 (FIDAS),1.63708,P,ugm-3,11.46257,P,ugm-3,13.97273,P,ugm-3,2.547,P,ugm-3 (Ref.eq)
02-01-2024,12:00,2.200,P,ugm-3 (FIDAS),1.66982,P,ugm-3,10.71622,P,ugm-3,13.27658,P,ugm-3,0.967,P,ugm-3 (Ref.eq)
02-01-2024,13:00,3.975,P,ugm-3 (FIDAS),1.57160,P,ugm-3,9.42480,P,ugm-3,11.83455,P,ugm-3,1.604,P,ugm-3 (Ref.eq)
02-01-2024,14:00,6.425,P,ugm-3 (FIDAS),1.04773,P,ugm-3,11.71980,P,ugm-3,13.32630,P,ugm-3,2.642,P,ugm-3 (Ref.eq)
02-01-2024,15:00,8.875,P,ugm-3 (FIDAS),2.12821,P,ugm-3,19.75947,P,ugm-3,23.02268,P,ugm-3,3.632,P,ugm-3 (Ref.eq)
02-01-2024,16:00,8.525,P,ugm-3 (FIDAS),4.09270,P,ugm-3,22.96291,P,ugm-3,29.23830,P,ugm-3,4.575,P,ugm-3 (Ref.eq)
02-01-2024,17:00,13.150,P,ugm-3 (FIDAS),66.72743,P,ugm-3,67.54663,P,ugm-3,169.86060,P,ugm-3,9.410,P,ugm-3 (Ref.eq)
02-01-2024,18:00,25.675,P,ugm-3 (FIDAS),71.40948,P,ugm-3,69.31808,P,ugm-3,178.81110,P,ugm-3,21.722,P,ugm-3 (Ref.eq)
02-01-2024,19:00,25.400,P,ugm-3 (FIDAS),40.66510,P,ugm-3,47.44052,P,ugm-3,109.79280,P,ugm-3,20.472,P,ugm-3 (Ref.eq)
02-01-2024,20:00,24.375,P,ugm-3 (FIDAS),27.17555,P,ugm-3,41.67051,P,ugm-3,83.33910,P,ugm-3,21.510,P,ugm-3 (Ref.eq)
02-01-2024,21:00,25.650,P,ugm-3 (FIDAS),18.20434,P,ugm-3,35.43671,P,ugm-3,63.34965,P,ugm-3,23.349,P,ugm-3 (Ref.eq)
02-01-2024,22:00,12.075,P,ugm-3 (FIDAS),9.98620,P,ugm-3,23.67245,P,ugm-3,38.98440,P,ugm-3,10.967,P,ugm-3 (Ref.eq)
02-01-2024,23:00,12.575,P,ugm-3 (FIDAS),10.64103,P,ugm-3,25.10491,P,ugm-3,41.42093,P,ugm-3,11.297,P,ugm-3 (Ref.eq)
02-01-2024,24:00,10.300,P,ugm-3 (FIDAS),4.94399,P,ugm-3,18.17688,P,ugm-3,25.75755,P,ugm-3,9.198,P,ugm-3 (Ref.eq)
03-01-2024,01:00,10.800,P,ugm-3 (FIDAS),2.27009,P,ugm-3,14.61915,P,ugm-3,18.09990,P,ugm-3,9.906,P,ugm-3 (Ref.eq)
03-01-2024,02:00,10.425,P,ugm-3 (FIDAS),2.44471,P,ugm-3,18.13050,P,ugm-3,21.87900,P,ugm-3,9.269,P,ugm-3 (Ref.eq)
03-01-2024,03:00,7.275,P,ugm-3 (FIDAS),1.27692,P,ugm-3,14.55078,P,ugm-3,16.50870,P,ugm-3,6.769,P,ugm-3 (Ref.eq)
03-01-2024,04:00,7.450,P,ugm-3 (FIDAS),2.35740,P,ugm-3,16.57373,P,ugm-3,20.18835,P,ugm-3,6.887,P,ugm-3 (Ref.eq)
03-01-2024,05:00,5.175,P,ugm-3 (FIDAS),3.04497,P,ugm-3,18.40351,P,ugm-3,23.07240,P,ugm-3,4.693,P,ugm-3 (Ref.eq)
03-01-2024,06:00,4.100,P,ugm-3 (FIDAS),7.17042,P,ugm-3,17.29904,P,ugm-3,28.29353,P,ugm-3,3.632,P,ugm-3 (Ref.eq)
03-01-2024,07:00,4.400,P,ugm-3 (FIDAS),16.50178,P,ugm-3,25.96410,P,ugm-3,51.26648,P,ugm-3,3.467,P,ugm-3 (Ref.eq)
03-01-2024,08:00,5.275,P,ugm-3 (FIDAS),64.40278,P,ugm-3,37.59640,P,ugm-3,136.34595,P,ugm-3,3.915,P,ugm-3 (Ref.eq)
03-01-2024,09:00,4.950,P,ugm-3 (FIDAS),62.24183,P,ugm-3,42.35183,P,ugm-3,137.78798,P,ugm-3,3.514,P,ugm-3 (Ref.eq)
03-01-2024,10:00,7.725,P,ugm-3 (FIDAS),98.94519,P,ugm-3,53.45151,P,ugm-3,205.16535,P,ugm-3,5.943,P,ugm-3 (Ref.eq)
03-01-2024,11:00,8.925,P,ugm-3 (FIDAS),74.19252,P,ugm-3,51.07809,P,ugm-3,164.83838,P,ugm-3,6.887,P,ugm-3 (Ref.eq)
03-01-2024,12:00,8.400,P,ugm-3 (FIDAS),114.20279,P,ugm-3,59.99130,P,ugm-3,235.09980,P,ugm-3,5.778,P,ugm-3 (Ref.eq)
03-01-2024,13:00,7.750,P,ugm-3 (FIDAS),82.21422,P,ugm-3,58.22080,P,ugm-3,184.28085,P,ugm-3,4.670,P,ugm-3 (Ref.eq)
03-01-2024,14:00,10.000,P,ugm-3 (FIDAS),35.29547,P,ugm-3,63.67956,P,ugm-3,117.79853,P,ugm-3,5.802,P,ugm-3 (Ref.eq)
03-01-2024,15:00,16.425,P,ugm-3 (FIDAS),43.64459,P,ugm-3,64.20406,P,ugm-3,131.12483,P,ugm-3,12.665,P,ugm-3 (Ref.eq)
03-01-2024,16:00,18.975,P,ugm-3 (FIDAS),48.19567,P,ugm-3,66.27578,P,ugm-3,140.17478,P,ugm-3,12.995,P,ugm-3 (Ref.eq)
03-01-2024,17:00,17.525,P,ugm-3 (FIDAS),68.23355,P,ugm-3,69.71254,P,ugm-3,174.33585,P,ugm-3,13.443,P,ugm-3 (Ref.eq)
03-01-2024,18:00,11.550,P,ugm-3 (FIDAS),49.37437,P,ugm-3,57.30806,P,ugm-3,133.01438,P,ugm-3,9.151,P,ugm-3 (Ref.eq)
03-01-2024,19:00,20.425,P,ugm-3 (FIDAS),61.97990,P,ugm-3,59.31188,P,ugm-3,154.34640,P,ugm-3,17.877,P,ugm-3 (Ref.eq)
03-01-2024,20:00,17.600,P,ugm-3 (FIDAS),33.00356,P,ugm-3,51.23205,P,ugm-3,101.83680,P,ugm-3,15.519,P,ugm-3 (Ref.eq)
03-01-2024,21:00,14.525,P,ugm-3 (FIDAS),21.51125,P,ugm-3,44.09030,P,ugm-3,77.07375,P,ugm-3,12.594,P,ugm-3 (Ref.eq)
03-01-2024,22:00,9.975,P,ugm-3 (FIDAS),16.60000,P,ugm-3,38.69227,P,ugm-3,64.14525,P,ugm-3,8.538,P,ugm-3 (Ref.eq)
03-01-2024,23:00,5.450,P,ugm-3 (FIDAS),13.48955,P,ugm-3,26.75396,P,ugm-3,47.43765,P,ugm-3,4.151,P,ugm-3 (Ref.eq)
03-01-2024,24:00,2.000,P,ugm-3 (FIDAS),3.63432,P,ugm-3,9.74275,P,ugm-3,15.31530,P,ugm-3,1.344,P,ugm-3 (Ref.eq)
04-01-2024,01:00,2.075,P,ugm-3 (FIDAS),1.65891,P,ugm-3,3.88748,P,ugm-3,6.43110,P,ugm-3,1.109,P,ugm-3 (Ref.eq)
04-01-2024,02:00,1.850,P,ugm-3 (FIDAS),1.30967,P,ugm-3,3.75998,P,ugm-3,5.76810,P,ugm-3,0.967,P,ugm-3 (Ref.eq)
04-01-2024,03:00,1.350,P,ugm-3 (FIDAS),1.11322,P,ugm-3,3.11642,P,ugm-3,4.82333,P,ugm-3,0.778,P,ugm-3 (Ref.eq)
04-01-2024,04:00,3.200,P,ugm-3 (FIDAS),2.91401,P,ugm-3,8.95767,P,ugm-3,13.42575,P,ugm-3,2.217,P,ugm-3 (Ref.eq)
04-01-2024,05:00,1.875,P,ugm-3 (FIDAS),2.42288,P,ugm-3,9.76044,P,ugm-3,13.47548,P,ugm-3,0.943,P,ugm-3 (Ref.eq)
04-01-2024,06:00,2.100,P,ugm-3 (FIDAS),4.25641,P,ugm-3,14.50727,P,ugm-3,21.03368,P,ugm-3,1.109,P,ugm-3 (Ref.eq)
04-01-2024,07:00,14.900,P,ugm-3 (FIDAS),4.32190,P,ugm-3,9.68299,P,ugm-3,16.30980,P,ugm-3,12.241,P,ugm-3 (Ref.eq)
04-01-2024,08:00,5.525,P,ugm-3 (FIDAS),18.89192,P,ugm-3,25.18332,P,ugm-3,54.15053,P,ugm-3,3.538,P,ugm-3 (Ref.eq)
04-01-2024,09:00,11.150,P,ugm-3 (FIDAS),25.40750,P,ugm-3,36.97245,P,ugm-3,75.93008,P,ugm-3,8.066,P,ugm-3 (Ref.eq)
04-01-2024,10:00,13.725,P,ugm-3 (FIDAS),96.58779,P,ugm-3,63.43093,P,ugm-3,211.53015,P,ugm-3,9.623,P,ugm-3 (Ref.eq)
04-01-2024,11:00,7.875,P,ugm-3 (FIDAS),110.73218,P,ugm-3,62.57796,P,ugm-3,232.36493,P,ugm-3,4.906,P,ugm-3 (Ref.eq)
04-01-2024,12:00,4.250,P,ugm-3 (FIDAS),26.02959,P,ugm-3,33.97987,P,ugm-3,73.89135,P,ugm-3,1.934,P,ugm-3 (Ref.eq)
04-01-2024,13:00,3.175,P,ugm-3 (FIDAS),18.46628,P,ugm-3,18.32749,P,ugm-3,46.64205,P,ugm-3,1.722,P,ugm-3 (Ref.eq)
04-01-2024,14:00,3.600,P,ugm-3 (FIDAS),19.84143,P,ugm-3,20.89311,P,ugm-3,51.31620,P,ugm-3,1.840,P,ugm-3 (Ref.eq)
04-01-2024,15:00,4.200,P,ugm-3 (FIDAS),22.82091,P,ugm-3,20.50152,P,ugm-3,55.49310,P,ugm-3,1.981,P,ugm-3 (Ref.eq)
04-01-2024,16:00,4.550,P,ugm-3 (FIDAS),26.68442,P,ugm-3,25.71595,P,ugm-3,66.63150,P,ugm-3,2.359,P,ugm-3 (Ref.eq)
04-01-2024,17:00,5.950,P,ugm-3 (FIDAS),40.40317,P,ugm-3,44.90837,P,ugm-3,106.85903,P,ugm-3,4.363,P,ugm-3 (Ref.eq)
04-01-2024,18:00,11.150,P,ugm-3 (FIDAS),41.68009,P,ugm-3,46.92845,P,ugm-3,110.83703,P,ugm-3,9.080,P,ugm-3 (Ref.eq)
04-01-2024,19:00,5.075,P,ugm-3 (FIDAS),24.94912,P,ugm-3,32.60334,P,ugm-3,70.85813,P,ugm-3,3.467,P,ugm-3 (Ref.eq)
04-01-2024,20:00,16.675,P,ugm-3 (FIDAS),35.26273,P,ugm-3,47.91721,P,ugm-3,101.98598,P,ugm-3,13.868,P,ugm-3 (Ref.eq)
04-01-2024,21:00,9.575,P,ugm-3 (FIDAS),46.23118,P,ugm-3,44.97244,P,ugm-3,115.85925,P,ugm-3,7.382,P,ugm-3 (Ref.eq)
04-01-2024,22:00,10.800,P,ugm-3 (FIDAS),24.26154,P,ugm-3,40.61911,P,ugm-3,77.81963,P,ugm-3,8.774,P,ugm-3 (Ref.eq)
04-01-2024,23:00,12.150,P,ugm-3 (FIDAS),19.93965,P,ugm-3,38.64350,P,ugm-3,69.21720,P,ugm-3,9.906,P,ugm-3 (Ref.eq)
04-01-2024,24:00,7.900,P,ugm-3 (FIDAS),12.11440,P,ugm-3,21.45347,P,ugm-3,40.02863,P,ugm-3,6.415,P,ugm-3 (Ref.eq)
05-01-2024,01:00,3.500,P,ugm-3 (FIDAS),4.32190,P,ugm-3,12.79909,P,ugm-3,19.42590,P,ugm-3,2.618,P,ugm-3 (Ref.eq)
05-01-2024,02:00,5.300,P,ugm-3 (FIDAS),7.07219,P,ugm-3,22.90282,P,ugm-3,33.74670,P,ugm-3,4.292,P,ugm-3 (Ref.eq)
05-01-2024,03:00,1.700,P,ugm-3 (FIDAS),2.84852,P,ugm-3,13.13553,P,ugm-3,17.50320,P,ugm-3,1.085,P,ugm-3 (Ref.eq)
05-01-2024,04:00,1.925,P,ugm-3 (FIDAS),1.70257,P,ugm-3,4.15204,P,ugm-3,6.76260,P,ugm-3,1.061,P,ugm-3 (Ref.eq)
05-01-2024,05:00,1.575,P,ugm-3 (FIDAS),2.68481,P,ugm-3,10.80084,P,ugm-3,14.91750,P,ugm-3,0.873,P,ugm-3 (Ref.eq)
05-01-2024,06:00,2.600,P,ugm-3 (FIDAS),4.19093,P,ugm-3,12.17115,P,ugm-3,18.59715,P,ugm-3,1.274,P,ugm-3 (Ref.eq)
05-01-2024,07:00,4.725,P,ugm-3 (FIDAS),40.40317,P,ugm-3,39.23972,P,ugm-3,101.19038,P,ugm-3,1.816,P,ugm-3 (Ref.eq)
05-01-2024,08:00,5.350,P,ugm-3 (FIDAS),75.24025,P,ugm-3,45.99084,P,ugm-3,161.35763,P,ugm-3,1.958,P,ugm-3 (Ref.eq)
05-01-2024,09:00,3.375,P,ugm-3 (FIDAS),29.95859,P,ugm-3,28.35329,P,ugm-3,74.28915,P,ugm-3,1.439,P,ugm-3 (Ref.eq)
05-01-2024,10:00,5.150,P,ugm-3 (FIDAS),27.96135,P,ugm-3,26.99016,P,ugm-3,69.86363,P,ugm-3,2.476,P,ugm-3 (Ref.eq)
05-01-2024,11:00,5.950,P,ugm-3 (FIDAS),43.61185,P,ugm-3,39.54094,P,ugm-3,106.41150,P,ugm-3,3.491,P,ugm-3 (Ref.eq)
05-01-2024,12:00,4.125,P,ugm-3 (FIDAS),41.64735,P,ugm-3,35.04465,P,ugm-3,98.90303,P,ugm-3,1.887,P,ugm-3 (Ref.eq)
05-01-2024,13:00,3.425,P,ugm-3 (FIDAS),26.61894,P,ugm-3,22.93231,P,ugm-3,63.74745,P,ugm-3,1.698,P,ugm-3 (Ref.eq)
05-01-2024,14:00,3.575,P,ugm-3 (FIDAS),24.19606,P,ugm-3,15.55867,P,ugm-3,52.65878,P,ugm-3,1.816,P,ugm-3 (Ref.eq)
05-01-2024,15:00,5.700,P,ugm-3 (FIDAS),46.13295,P,ugm-3,36.42117,P,ugm-3,107.15738,P,ugm-3,3.066,P,ugm-3 (Ref.eq)
05-01-2024,16:00,9.775,P,ugm-3 (FIDAS),54.87496,P,ugm-3,50.01761,P,ugm-3,134.15805,P,ugm-3,6.769,P,ugm-3 (Ref.eq)
05-01-2024,17:00,9.650,P,ugm-3 (FIDAS),51.10968,P,ugm-3,62.50385,P,ugm-3,140.87093,P,ugm-3,6.250,P,ugm-3 (Ref.eq)
05-01-2024,18:00,12.250,P,ugm-3 (FIDAS),57.46155,P,ugm-3,57.58777,P,ugm-3,145.69425,P,ugm-3,8.396,P,ugm-3 (Ref.eq)
05-01-2024,19:00,9.175,P,ugm-3 (FIDAS),38.04577,P,ugm-3,43.94829,P,ugm-3,102.28433,P,ugm-3,5.991,P,ugm-3 (Ref.eq)
05-01-2024,20:00,7.550,P,ugm-3 (FIDAS),22.29705,P,ugm-3,24.23855,P,ugm-3,58.42688,P,ugm-3,4.434,P,ugm-3 (Ref.eq)
05-01-2024,21:00,7.950,P,ugm-3 (FIDAS),8.18541,P,ugm-3,9.02987,P,ugm-3,21.58065,P,ugm-3,4.316,P,ugm-3 (Ref.eq)
05-01-2024,22:00,9.250,P,ugm-3 (FIDAS),9.69152,P,ugm-3,16.96388,P,ugm-3,31.82400,P,ugm-3,5.118,P,ugm-3 (Ref.eq)
05-01-2024,23:00,9.375,P,ugm-3 (FIDAS),6.64655,P,ugm-3,14.32319,P,ugm-3,24.51443,P,ugm-3,5.377,P,ugm-3 (Ref.eq)
05-01-2024,24:00,6.525,P,ugm-3 (FIDAS),4.61657,P,ugm-3,12.36383,P,ugm-3,19.44248,P,ugm-3,3.962,P,ugm-3 (Ref.eq)
06-01-2024,01:00,5.325,P,ugm-3 (FIDAS),1.57160,P,ugm-3,3.75615,P,ugm-3,6.16590,P,ugm-3,3.137,P,ugm-3 (Ref.eq)
06-01-2024,02:00,4.075,P,ugm-3 (FIDAS),2.57568,P,ugm-3,3.94039,P,ugm-3,7.88970,P,ugm-3,2.146,P,ugm-3 (Ref.eq)
06-01-2024,03:00,3.375,P,ugm-3 (FIDAS),1.93176,P,ugm-3,3.40282,P,ugm-3,6.36480,P,ugm-3,1.910,P,ugm-3 (Ref.eq)
06-01-2024,04:00,3.450,P,ugm-3 (FIDAS),1.27692,P,ugm-3,2.56705,P,ugm-3,4.52498,P,ugm-3,1.910,P,ugm-3 (Ref.eq)
06-01-2024,05:00,3.100,P,ugm-3 (FIDAS),1.30967,P,ugm-3,3.16328,P,ugm-3,5.17140,P,ugm-3,1.816,P,ugm-3 (Ref.eq)
06-01-2024,06:00,2.700,P,ugm-3 (FIDAS),0.91677,P,ugm-3,2.17451,P,ugm-3,3.58020,P,ugm-3,1.462,P,ugm-3 (Ref.eq)
06-01-2024,07:00,2.650,P,ugm-3 (FIDAS),1.96450,P,ugm-3,3.89959,P,ugm-3,6.91178,P,ugm-3,1.462,P,ugm-3 (Ref.eq)
06-01-2024,08:00,2.900,P,ugm-3 (FIDAS),4.78028,P,ugm-3,6.09609,P,ugm-3,13.42575,P,ugm-3,1.439,P,ugm-3 (Ref.eq)
06-01-2024,09:00,3.350,P,ugm-3 (FIDAS),6.67929,P,ugm-3,9.84746,P,ugm-3,20.08890,P,ugm-3,1.651,P,ugm-3 (Ref.eq)
06-01-2024,10:00,3.275,P,ugm-3 (FIDAS),8.67653,P,ugm-3,14.09465,P,ugm-3,27.39848,P,ugm-3,1.745,P,ugm-3 (Ref.eq)
06-01-2024,11:00,6.750,P,ugm-3 (FIDAS),25.53847,P,ugm-3,35.92631,P,ugm-3,75.08475,P,ugm-3,3.939,P,ugm-3 (Ref.eq)
06-01-2024,12:00,6.925,P,ugm-3 (FIDAS),33.59291,P,ugm-3,36.05732,P,ugm-3,87.56573,P,ugm-3,4.599,P,ugm-3 (Ref.eq)
06-01-2024,13:00,5.850,P,ugm-3 (FIDAS),35.13176,P,ugm-3,29.27225,P,ugm-3,83.14020,P,ugm-3,3.726,P,ugm-3 (Ref.eq)
06-01-2024,14:00,7.025,P,ugm-3 (FIDAS),57.36333,P,ugm-3,46.25190,P,ugm-3,134.20778,P,ugm-3,4.458,P,ugm-3 (Ref.eq)
06-01-2024,15:00,6.275,P,ugm-3 (FIDAS),30.67890,P,ugm-3,23.96697,P,ugm-3,71.00730,P,ugm-3,3.538,P,ugm-3 (Ref.eq)
06-01-2024,16:00,7.500,P,ugm-3 (FIDAS),38.76608,P,ugm-3,46.12568,P,ugm-3,105.56618,P,ugm-3,4.811,P,ugm-3 (Ref.eq)
06-01-2024,17:00,9.400,P,ugm-3 (FIDAS),32.54518,P,ugm-3,34.77977,P,ugm-3,84.68168,P,ugm-3,6.439,P,ugm-3 (Ref.eq)
06-01-2024,18:00,9.650,P,ugm-3 (FIDAS),27.79764,P,ugm-3,33.60597,P,ugm-3,76.22843,P,ugm-3,7.170,P,ugm-3 (Ref.eq)
06-01-2024,19:00,12.250,P,ugm-3 (FIDAS),37.06352,P,ugm-3,39.88519,P,ugm-3,96.71513,P,ugm-3,9.269,P,ugm-3 (Ref.eq)
06-01-2024,20:00,11.775,P,ugm-3 (FIDAS),18.26983,P,ugm-3,25.49076,P,ugm-3,53.50410,P,ugm-3,7.689,P,ugm-3 (Ref.eq)
06-01-2024,21:00,11.350,P,ugm-3 (FIDAS),23.11559,P,ugm-3,32.58039,P,ugm-3,68.02380,P,ugm-3,7.783,P,ugm-3 (Ref.eq)
06-01-2024,22:00,13.100,P,ugm-3 (FIDAS),20.79093,P,ugm-3,34.95142,P,ugm-3,66.83040,P,ugm-3,10.071,P,ugm-3 (Ref.eq)
06-01-2024,23:00,12.150,P,ugm-3 (FIDAS),11.95069,P,ugm-3,26.17973,P,ugm-3,44.50388,P,ugm-3,9.811,P,ugm-3 (Ref.eq)
06-01-2024,24:00,4.575,P,ugm-3 (FIDAS),5.04221,P,ugm-3,10.91559,P,ugm-3,18.64688,P,ugm-3,3.609,P,ugm-3 (Ref.eq)
07-01-2024,01:00,5.450,P,ugm-3 (FIDAS),3.23051,P,ugm-3,6.11872,P,ugm-3,11.07210,P,ugm-3,4.222,P,ugm-3 (Ref.eq)
07-01-2024,02:00,3.575,P,ugm-3 (FIDAS),2.40105,P,ugm-3,5.20264,P,ugm-3,8.88420,P,ugm-3,2.500,P,ugm-3 (Ref.eq)
07-01-2024,03:00,2.200,P,ugm-3 (FIDAS),1.80079,P,ugm-3,2.75830,P,ugm-3,5.51948,P,ugm-3,1.486,P,ugm-3 (Ref.eq)
07-01-2024,04:00,2.625,P,ugm-3 (FIDAS),1.96450,P,ugm-3,2.60674,P,ugm-3,5.61893,P,ugm-3,1.392,P,ugm-3 (Ref.eq)
07-01-2024,05:00,2.100,P,ugm-3 (FIDAS),1.37515,P,ugm-3,2.31699,P,ugm-3,4.42553,P,ugm-3,1.226,P,ugm-3 (Ref.eq)
07-01-2024,06:00,2.300,P,ugm-3 (FIDAS),1.17870,P,ugm-3,2.76739,P,ugm-3,4.57470,P,ugm-3,1.226,P,ugm-3 (Ref.eq)
07-01-2024,07:00,2.425,P,ugm-3 (FIDAS),2.39014,P,ugm-3,3.94310,P,ugm-3,7.60793,P,ugm-3,1.203,P,ugm-3 (Ref.eq)
07-01-2024,08:00,2.850,P,ugm-3 (FIDAS),6.61381,P,ugm-3,12.98109,P,ugm-3,23.12213,P,ugm-3,1.745,P,ugm-3 (Ref.eq)
07-01-2024,09:00,4.875,P,ugm-3 (FIDAS),8.57831,P,ugm-3,15.88618,P,ugm-3,29.03940,P,ugm-3,3.349,P,ugm-3 (Ref.eq)
07-01-2024,10:00,3.825,P,ugm-3 (FIDAS),10.57555,P,ugm-3,15.45922,P,ugm-3,31.67483,P,ugm-3,2.288,P,ugm-3 (Ref.eq)
07-01-2024,11:00,4.275,P,ugm-3 (FIDAS),26.06233,P,ugm-3,21.54814,P,ugm-3,61.50983,P,ugm-3,2.406,P,ugm-3 (Ref.eq)
07-01-2024,12:00,4.175,P,ugm-3 (FIDAS),18.40079,P,ugm-3,17.08532,P,ugm-3,45.29948,P,ugm-3,2.665,P,ugm-3 (Ref.eq)
07-01-2024,13:00,5.050,P,ugm-3 (FIDAS),24.98186,P,ugm-3,18.82904,P,ugm-3,57.13403,P,ugm-3,3.042,P,ugm-3 (Ref.eq)
07-01-2024,14:00,5.700,P,ugm-3 (FIDAS),26.88087,P,ugm-3,22.72958,P,ugm-3,63.94635,P,ugm-3,4.033,P,ugm-3 (Ref.eq)
07-01-2024,15:00,8.625,P,ugm-3 (FIDAS),32.02131,P,ugm-3,21.95837,P,ugm-3,71.05703,P,ugm-3,6.462,P,ugm-3 (Ref.eq)
07-01-2024,16:00,10.100,P,ugm-3 (FIDAS),38.07851,P,ugm-3,34.10227,P,ugm-3,92.48850,P,ugm-3,7.995,P,ugm-3 (Ref.eq)
07-01-2024,17:00,13.200,P,ugm-3 (FIDAS),44.98699,P,ugm-3,36.83571,P,ugm-3,105.81480,P,ugm-3,10.849,P,ugm-3 (Ref.eq)
07-01-2024,18:00,14.850,P,ugm-3 (FIDAS),33.52742,P,ugm-3,33.82065,P,ugm-3,85.22865,P,ugm-3,12.099,P,ugm-3 (Ref.eq)
07-01-2024,19:00,13.600,P,ugm-3 (FIDAS),31.62841,P,ugm-3,35.14123,P,ugm-3,83.63745,P,ugm-3,10.873,P,ugm-3 (Ref.eq)
07-01-2024,20:00,10.050,P,ugm-3 (FIDAS),17.81144,P,ugm-3,22.51395,P,ugm-3,49.82445,P,ugm-3,8.066,P,ugm-3 (Ref.eq)
07-01-2024,21:00,12.200,P,ugm-3 (FIDAS),15.45405,P,ugm-3,22.20030,P,ugm-3,45.89618,P,ugm-3,10.259,P,ugm-3 (Ref.eq)
07-01-2024,22:00,14.500,P,ugm-3 (FIDAS),28.41973,P,ugm-3,32.40349,P,ugm-3,75.97980,P,ugm-3,12.382,P,ugm-3 (Ref.eq)
07-01-2024,23:00,14.275,P,ugm-3 (FIDAS),36.27772,P,ugm-3,31.84121,P,ugm-3,87.46628,P,ugm-3,12.476,P,ugm-3 (Ref.eq)
07-01-2024,24:00,5.600,P,ugm-3 (FIDAS),6.77752,P,ugm-3,12.28255,P,ugm-3,22.67460,P,ugm-3,5.047,P,ugm-3 (Ref.eq)
08-01-2024,01:00,7.200,P,ugm-3 (FIDAS),1.09139,P,ugm-3,6.61406,P,ugm-3,8.28750,P,ugm-3,6.580,P,ugm-3 (Ref.eq)
08-01-2024,02:00,6.075,P,ugm-3 (FIDAS),1.83353,P,ugm-3,7.79663,P,ugm-3,10.60800,P,ugm-3,5.495,P,ugm-3 (Ref.eq)
08-01-2024,03:00,3.350,P,ugm-3 (FIDAS),1.44063,P,ugm-3,5.10064,P,ugm-3,7.30958,P,ugm-3,2.995,P,ugm-3 (Ref.eq)
08-01-2024,04:00,2.750,P,ugm-3 (FIDAS),1.70257,P,ugm-3,3.25699,P,ugm-3,5.86755,P,ugm-3,2.476,P,ugm-3 (Ref.eq)
08-01-2024,05:00,3.100,P,ugm-3 (FIDAS),1.14596,P,ugm-3,5.85082,P,ugm-3,7.60793,P,ugm-3,2.830,P,ugm-3 (Ref.eq)
08-01-2024,06:00,1.700,P,ugm-3 (FIDAS),3.04497,P,ugm-3,5.82308,P,ugm-3,10.49198,P,ugm-3,1.321,P,ugm-3 (Ref.eq)
08-01-2024,07:00,1.950,P,ugm-3 (FIDAS),2.71756,P,ugm-3,6.87209,P,ugm-3,11.03895,P,ugm-3,1.604,P,ugm-3 (Ref.eq)
08-01-2024,08:00,2.175,P,ugm-3 (FIDAS),36.44143,P,ugm-3,29.05422,P,ugm-3,84.93030,P,ugm-3,1.415,P,ugm-3 (Ref.eq)
08-01-2024,09:00,3.200,P,ugm-3 (FIDAS),44.59409,P,ugm-3,32.61482,P,ugm-3,100.99148,P,ugm-3,2.217,P,ugm-3 (Ref.eq)
08-01-2024,10:00,3.275,P,ugm-3 (FIDAS),40.95977,P,ugm-3,36.39727,P,ugm-3,99.20138,P,ugm-3,2.217,P,ugm-3 (Ref.eq)
08-01-2024,11:00,3.225,P,ugm-3 (FIDAS),33.23275,P,ugm-3,25.71978,P,ugm-3,76.67595,P,ugm-3,2.264,P,ugm-3 (Ref.eq)
08-01-2024,12:00,3.600,P,ugm-3 (FIDAS),21.08561,P,ugm-3,24.35569,P,ugm-3,56.68650,P,ugm-3,3.066,P,ugm-3 (Ref.eq)
08-01-2024,13:00,4.550,P,ugm-3 (FIDAS),18.79369,P,ugm-3,23.34493,P,ugm-3,52.16153,P,ugm-3,3.231,P,ugm-3 (Ref.eq)
08-01-2024,14:00,3.450,P,ugm-3 (FIDAS),9.03669,P,ugm-3,19.26079,P,ugm-3,33.11685,P,ugm-3,2.925,P,ugm-3 (Ref.eq)
08-01-2024,15:00,4.150,P,ugm-3 (FIDAS),4.25641,P,ugm-3,18.93279,P,ugm-3,25.45920,P,ugm-3,3.373,P,ugm-3 (Ref.eq)
08-01-2024,16:00,7.050,P,ugm-3 (FIDAS),13.35858,P,ugm-3,31.08195,P,ugm-3,51.56483,P,ugm-3,6.132,P,ugm-3 (Ref.eq)
08-01-2024,17:00,6.825,P,ugm-3 (FIDAS),7.46509,P,ugm-3,31.31719,P,ugm-3,42.76350,P,ugm-3,5.991,P,ugm-3 (Ref.eq)
08-01-2024,18:00,9.200,P,ugm-3 (FIDAS),12.24537,P,ugm-3,38.00998,P,ugm-3,56.78595,P,ugm-3,8.420,P,ugm-3 (Ref.eq)
08-01-2024,19:00,9.425,P,ugm-3 (FIDAS),19.97239,P,ugm-3,40.73147,P,ugm-3,71.35538,P,ugm-3,8.538,P,ugm-3 (Ref.eq)
08-01-2024,20:00,8.000,P,ugm-3 (FIDAS),14.04616,P,ugm-3,25.75133,P,ugm-3,47.28848,P,ugm-3,7.382,P,ugm-3 (Ref.eq)
08-01-2024,21:00,7.700,P,ugm-3 (FIDAS),3.73255,P,ugm-3,20.87972,P,ugm-3,26.60288,P,ugm-3,7.170,P,ugm-3 (Ref.eq)
08-01-2024,22:00,8.400,P,ugm-3 (FIDAS),8.57831,P,ugm-3,20.26198,P,ugm-3,33.41520,P,ugm-3,7.807,P,ugm-3 (Ref.eq)
08-01-2024,23:00,8.650,P,ugm-3 (FIDAS),5.27140,P,ugm-3,20.65835,P,ugm-3,28.74105,P,ugm-3,8.042,P,ugm-3 (Ref.eq)
08-01-2024,24:00,9.225,P,ugm-3 (FIDAS),2.52111,P,ugm-3,19.25648,P,ugm-3,23.12213,P,ugm-3,8.514,P,ugm-3 (Ref.eq)
09-01-2024,01:00,6.525,P,ugm-3 (FIDAS),1.26601,P,ugm-3,11.58401,P,ugm-3,13.52520,P,ugm-3,6.061,P,ugm-3 (Ref.eq)
09-01-2024,02:00,8.475,P,ugm-3 (FIDAS),1.52794,P,ugm-3,16.75159,P,ugm-3,19.09440,P,ugm-3,7.901,P,ugm-3 (Ref.eq)
09-01-2024,03:00,8.625,P,ugm-3 (FIDAS),1.73531,P,ugm-3,16.68226,P,ugm-3,19.34303,P,ugm-3,8.090,P,ugm-3 (Ref.eq)
09-01-2024,04:00,7.100,P,ugm-3 (FIDAS),1.11322,P,ugm-3,12.46472,P,ugm-3,14.17163,P,ugm-3,6.580,P,ugm-3 (Ref.eq)
09-01-2024,05:00,7.900,P,ugm-3 (FIDAS),1.63708,P,ugm-3,12.30789,P,ugm-3,14.81805,P,ugm-3,7.335,P,ugm-3 (Ref.eq)
09-01-2024,06:00,6.325,P,ugm-3 (FIDAS),4.61657,P,ugm-3,14.30311,P,ugm-3,21.38175,P,ugm-3,5.873,P,ugm-3 (Ref.eq)
09-01-2024,07:00,5.650,P,ugm-3 (FIDAS),6.15543,P,ugm-3,11.04851,P,ugm-3,20.48670,P,ugm-3,5.212,P,ugm-3 (Ref.eq)
09-01-2024,08:00,5.975,P,ugm-3 (FIDAS),29.40198,P,ugm-3,21.35019,P,ugm-3,66.43260,P,ugm-3,5.448,P,ugm-3 (Ref.eq)
09-01-2024,09:00,7.150,P,ugm-3 (FIDAS),46.52585,P,ugm-3,30.84623,P,ugm-3,102.18488,P,ugm-3,6.226,P,ugm-3 (Ref.eq)
09-01-2024,10:00,7.700,P,ugm-3 (FIDAS),44.79054,P,ugm-3,29.72790,P,ugm-3,98.40578,P,ugm-3,6.722,P,ugm-3 (Ref.eq)
09-01-2024,11:00,10.350,P,ugm-3 (FIDAS),33.85484,P,ugm-3,33.41807,P,ugm-3,85.32810,P,ugm-3,9.222,P,ugm-3 (Ref.eq)
09-01-2024,12:00,5.675,P,ugm-3 (FIDAS),24.75267,P,ugm-3,28.08124,P,ugm-3,66.03480,P,ugm-3,5.094,P,ugm-3 (Ref.eq)
09-01-2024,13:00,4.900,P,ugm-3 (FIDAS),25.37476,P,ugm-3,23.19910,P,ugm-3,62.10653,P,ugm-3,4.245,P,ugm-3 (Ref.eq)
09-01-2024,14:00,5.600,P,ugm-3 (FIDAS),25.01460,P,ugm-3,30.86201,P,ugm-3,69.21720,P,ugm-3,4.929,P,ugm-3 (Ref.eq)
09-01-2024,15:00,8.025,P,ugm-3 (FIDAS),31.66115,P,ugm-3,29.82018,P,ugm-3,78.36660,P,ugm-3,6.887,P,ugm-3 (Ref.eq)
09-01-2024,16:00,13.475,P,ugm-3 (FIDAS),29.27101,P,ugm-3,33.68391,P,ugm-3,78.56550,P,ugm-3,11.604,P,ugm-3 (Ref.eq)
09-01-2024,17:00,17.950,P,ugm-3 (FIDAS),50.29114,P,ugm-3,49.78620,P,ugm-3,126.89820,P,ugm-3,15.920,P,ugm-3 (Ref.eq)